Windom, MN

6:47 AM CDT on August 19, 2017 (GMT -0500)
Windom Municipal

Weather History for KMWM - November, 2012

Change the Weather History Date:

Tuesday, November 6, 2012

  Actual Average Record
Temperature  
Mean Temperature 40 °F -  
Max Temperature 44 °F 45 °F 73 °F (2004)
Min Temperature 37 °F 27 °F 3 °F (1959)
Degree Days  
Heating Degree Days 24    
Moisture  
Dew Point 36 °F    
Average Humidity 82    
Maximum Humidity 93    
Minimum Humidity 71    
Precipitation  
Precipitation 0.03 in - - ()
Sea Level Pressure  
Sea Level Pressure 29.89 in    
Wind  
Wind Speed 16 mph (WNW)    
Max Wind Speed 22 mph    
Max Gust Speed 32 mph    
Visibility 9 miles    
Events Rain    
Averages and records for this station are not official NWS values.
T = Trace of Precipitation, MM = Missing Value Source: NWS Daily Summary

Daily Weather History Graph

Daily Weather History Graph

Search for Another Location

Airport or City:

Trip Planner

Search our weather history database for the weather conditions in past years. The results will help you decide how hot, cold, wet, or windy it might be!

Date:

Astronomy

Nov. 06, 2012 Rise Set
Actual Time 7:03 AM CST 5:03 PM CST
Civil Twilight 6:33 AM CST 5:34 PM CST
Nautical Twilight 5:59 AM CST 6:08 PM CST
Astronomical Twilight 5:25 AM CST 6:42 PM CST
Moon 11:46 PM CST (11/6) 12:54 PM CST (11/6)
Length of Visible Light 11h 00m
Length of Day
9h 59m
Waning Gibbous, 53% of the Moon is Illuminated
Nov 6
Waning Gibbous
Nov 6
Last Quarter
Nov 13
New
Nov 20
First Quarter
Nov 28
Full

Hourly Weather History & Observations

Time (CST) Temp. Windchill Dew Point Humidity Pressure Visibility Wind Dir Wind Speed Gust Speed Precip Events Conditions
12:13 AM 37.4 °F 28.5 °F 35.6 °F 93% 29.90 in 5.0 mi SSW 15.0 mph 24.2 mph N/A   Overcast
12:32 AM 37.4 °F 28.2 °F 35.6 °F 93% 29.89 in 5.0 mi SSW 16.1 mph - N/A   Drizzle
12:53 AM 39.2 °F 30.5 °F 35.6 °F 87% 29.87 in 7.0 mi South 16.1 mph 24.2 mph N/A   Overcast
1:13 AM 39.2 °F 30.8 °F 35.6 °F 87% 29.86 in 7.0 mi South 15.0 mph 20.7 mph N/A Rain Light Rain
1:32 AM 39.2 °F 31.2 °F 35.6 °F 87% 29.86 in 7.0 mi South 13.8 mph 23.0 mph N/A   Overcast
1:53 AM 39.2 °F 32.0 °F 37.4 °F 93% 29.86 in 7.0 mi South 11.5 mph 17.3 mph N/A Rain Light Rain
2:32 AM 39.2 °F 29.8 °F 37.4 °F 93% 29.83 in 7.0 mi South 18.4 mph 23.0 mph N/A   Overcast
2:52 AM 39.2 °F 32.0 °F 37.4 °F 93% 29.85 in 5.0 mi SW 11.5 mph 23.0 mph N/A Rain Rain
3:12 AM 39.2 °F 30.5 °F 37.4 °F 93% 29.83 in 7.0 mi SSW 16.1 mph - 0.02 in Rain Light Rain
3:33 AM 39.2 °F 31.6 °F 37.4 °F 93% 29.82 in 5.0 mi SSW 12.7 mph - 0.02 in Rain Rain
3:52 AM 39.2 °F 32.0 °F 37.4 °F 93% 29.82 in 7.0 mi SSW 11.5 mph 18.4 mph 0.03 in Rain Light Rain
4:12 AM 39.2 °F 32.0 °F 37.4 °F 93% 29.81 in 7.0 mi SW 11.5 mph 16.1 mph N/A   Overcast
4:33 AM 39.2 °F 32.0 °F 37.4 °F 93% 29.82 in 7.0 mi SW 11.5 mph - N/A   Overcast
4:52 AM 39.2 °F 31.6 °F 37.4 °F 93% 29.82 in 7.0 mi WSW 12.7 mph - N/A   Overcast
5:12 AM 39.2 °F 33.0 °F 37.4 °F 93% 29.81 in 7.0 mi WSW 9.2 mph - N/A   Overcast
5:33 AM 39.2 °F 33.0 °F 37.4 °F 93% 29.81 in 7.0 mi West 9.2 mph - N/A   Overcast
5:52 AM 39.2 °F 32.5 °F 37.4 °F 93% 29.81 in 10.0 mi West 10.4 mph - N/A   Overcast
6:12 AM 39.2 °F 31.2 °F 37.4 °F 93% 29.81 in 10.0 mi West 13.8 mph - N/A   Overcast
6:33 AM 41.0 °F 33.5 °F 37.4 °F 87% 29.82 in 10.0 mi WNW 13.8 mph 19.6 mph N/A   Overcast
6:52 AM 39.2 °F 31.2 °F 37.4 °F 93% 29.82 in 10.0 mi WNW 13.8 mph - N/A   Scattered Clouds
7:12 AM 39.2 °F 31.2 °F 35.6 °F 87% 29.83 in 10.0 mi WNW 13.8 mph 18.4 mph N/A   Scattered Clouds
7:33 AM 39.2 °F 30.2 °F 35.6 °F 87% 29.85 in 10.0 mi WNW 17.3 mph - N/A   Clear
7:52 AM 39.2 °F 29.8 °F 35.6 °F 87% 29.86 in 10.0 mi WNW 18.4 mph 24.2 mph N/A   Clear
8:12 AM 39.2 °F 29.8 °F 35.6 °F 87% 29.87 in 10.0 mi West 18.4 mph - N/A   Clear
8:33 AM 39.2 °F 29.8 °F 35.6 °F 87% 29.86 in 10.0 mi WNW 18.4 mph - N/A   Clear
8:52 AM 41.0 °F 32.5 °F 35.6 °F 81% 29.86 in 10.0 mi West 17.3 mph 23.0 mph N/A   Clear
9:12 AM 42.8 °F 34.3 °F 35.6 °F 76% 29.86 in 10.0 mi WNW 19.6 mph 26.5 mph N/A   Clear
9:33 AM 42.8 °F 34.0 °F 37.4 °F 81% 29.87 in 10.0 mi WNW 20.7 mph 26.5 mph N/A   Scattered Clouds
9:52 AM 42.8 °F 34.0 °F 35.6 °F 76% 29.86 in 10.0 mi WNW 20.7 mph 27.6 mph N/A   Mostly Cloudy
10:12 AM 44.6 °F 36.9 °F 37.4 °F 76% 29.87 in 10.0 mi WNW 18.4 mph 26.5 mph N/A   Mostly Cloudy
10:33 AM 44.6 °F 36.9 °F 35.6 °F 71% 29.88 in 10.0 mi WNW 18.4 mph 31.1 mph N/A   Overcast
10:52 AM 44.6 °F 36.4 °F 35.6 °F 71% 29.88 in 10.0 mi WNW 20.7 mph 31.1 mph N/A   Overcast
11:12 AM 44.6 °F 36.6 °F 35.6 °F 71% 29.88 in 10.0 mi NW 19.6 mph - N/A   Overcast
11:33 AM 42.8 °F 34.3 °F 35.6 °F 76% 29.88 in 10.0 mi WNW 19.6 mph 28.8 mph N/A   Overcast
11:52 AM 42.8 °F 34.0 °F 35.6 °F 76% 29.87 in 10.0 mi WNW 20.7 mph 26.5 mph N/A   Overcast
12:12 PM 42.8 °F 34.8 °F 35.6 °F 76% 29.87 in 10.0 mi WNW 17.3 mph 28.8 mph N/A   Overcast
12:33 PM 44.6 °F 37.2 °F 37.4 °F 76% 29.87 in 10.0 mi WNW 17.3 mph 23.0 mph N/A   Overcast
12:52 PM 44.6 °F 36.6 °F 35.6 °F 71% 29.87 in 10.0 mi WNW 19.6 mph 32.2 mph N/A   Overcast
1:12 PM 44.6 °F 37.2 °F 35.6 °F 71% 29.87 in 10.0 mi WNW 17.3 mph 26.5 mph N/A   Overcast
1:33 PM 42.8 °F 33.8 °F 35.6 °F 76% 29.88 in 10.0 mi WNW 21.9 mph 26.5 mph N/A   Overcast
1:52 PM 44.6 °F 36.9 °F 35.6 °F 71% 29.88 in 10.0 mi WNW 18.4 mph 27.6 mph N/A   Overcast
2:12 PM 42.8 °F 34.0 °F 35.6 °F 76% 29.88 in 10.0 mi WNW 20.7 mph 27.6 mph N/A   Overcast
2:33 PM 42.8 °F 34.5 °F 35.6 °F 76% 29.89 in 10.0 mi WNW 18.4 mph 25.3 mph N/A   Overcast
2:52 PM 42.8 °F 35.1 °F 35.6 °F 76% 29.89 in 10.0 mi WNW 16.1 mph 26.5 mph N/A   Overcast
3:12 PM 42.8 °F 34.8 °F 35.6 °F 76% 29.90 in 10.0 mi WNW 17.3 mph 21.9 mph N/A   Overcast
3:33 PM 42.8 °F 33.8 °F 35.6 °F 76% 29.90 in 10.0 mi WNW 21.9 mph 27.6 mph N/A   Overcast
3:52 PM 42.8 °F 35.4 °F 35.6 °F 76% 29.90 in 10.0 mi WNW 15.0 mph 20.7 mph N/A   Overcast
4:12 PM 42.8 °F 34.5 °F 35.6 °F 76% 29.91 in 10.0 mi WNW 18.4 mph 26.5 mph N/A   Overcast
4:33 PM 42.8 °F 34.8 °F 35.6 °F 76% 29.91 in 10.0 mi WNW 17.3 mph 26.5 mph N/A   Overcast
4:52 PM 42.8 °F 34.3 °F 35.6 °F 76% 29.92 in 10.0 mi WNW 19.6 mph 25.3 mph N/A   Overcast
5:33 PM 42.8 °F 35.4 °F 35.6 °F 76% 29.93 in 10.0 mi WNW 15.0 mph 24.2 mph N/A   Overcast
5:52 PM 42.8 °F 34.8 °F 35.6 °F 76% 29.94 in 10.0 mi WNW 17.3 mph 21.9 mph N/A   Overcast
6:12 PM 42.8 °F 34.8 °F 35.6 °F 76% 29.94 in 10.0 mi WNW 17.3 mph 23.0 mph N/A   Overcast
6:33 PM 42.8 °F 34.0 °F 35.6 °F 76% 29.95 in 10.0 mi NW 20.7 mph 28.8 mph N/A   Overcast
6:52 PM 42.8 °F 35.8 °F 35.6 °F 76% 29.94 in 10.0 mi NW 13.8 mph 21.9 mph N/A   Overcast
7:13 PM 42.8 °F 35.4 °F 35.6 °F 76% 29.95 in 10.0 mi NW 15.0 mph 20.7 mph N/A   Overcast
7:32 PM 42.8 °F 36.6 °F 35.6 °F 76% 29.95 in 10.0 mi NW 11.5 mph - N/A   Overcast
7:53 PM 41.0 °F 33.9 °F 35.6 °F 81% 29.96 in 10.0 mi WNW 12.7 mph - N/A   Overcast
8:13 PM 41.0 °F 32.5 °F 35.6 °F 81% 29.95 in 10.0 mi NW 17.3 mph - N/A   Overcast
8:32 PM 41.0 °F 32.8 °F 35.6 °F 81% 29.96 in 10.0 mi NW 16.1 mph 23.0 mph N/A   Overcast
8:53 PM 41.0 °F 32.8 °F 35.6 °F 81% 29.97 in 10.0 mi NNW 16.1 mph - N/A   Overcast
9:13 PM 41.0 °F 32.8 °F 35.6 °F 81% 29.97 in 10.0 mi NW 16.1 mph 21.9 mph N/A   Overcast
9:32 PM 41.0 °F 32.8 °F 35.6 °F 81% 29.98 in 10.0 mi NW 16.1 mph - N/A   Overcast
9:53 PM 41.0 °F 33.1 °F 33.8 °F 76% 29.98 in 10.0 mi NW 15.0 mph 20.7 mph N/A   Overcast
10:12 PM 41.0 °F 32.8 °F 35.6 °F 81% 29.98 in 10.0 mi NW 16.1 mph - N/A   Overcast
10:33 PM 41.0 °F 32.2 °F 35.6 °F 81% 29.98 in 10.0 mi NW 18.4 mph 24.2 mph N/A   Overcast
10:53 PM 39.2 °F 29.6 °F 35.6 °F 87% 29.99 in 10.0 mi NW 19.6 mph 24.2 mph N/A   Overcast
11:12 PM 39.2 °F 29.8 °F 35.6 °F 87% 29.99 in 10.0 mi NW 18.4 mph 21.9 mph N/A   Overcast
11:33 PM 39.2 °F 29.6 °F 35.6 °F 87% 29.99 in 10.0 mi NW 19.6 mph - N/A   Overcast
11:53 PM 39.2 °F 29.8 °F 35.6 °F 87% 30.00 in 10.0 mi NW 18.4 mph 21.9 mph N/A   Overcast